Location: Lawrence Hall of Science
(37.8785°N, 122.2415°W)
Time: 06:58:48
(UTC-07:00)

ARGOS - Visible Passes

Search period start: 28 March 2017 00:00
Search period end: 07 April 2017 00:00
Orbit: 819 x 836 km, 98.6° (Epoch: 26 March)

Date Brightness Start Highest point End Pass type
(mag) Time Alt. Az. Time Alt. Az. Time Alt. Az.
28 Mar 4.4 21:36:46 27° NE 21:36:46 27° NE 21:40:04 10° N visible
28 Mar 5.4 23:18:17 20° NW 23:18:17 20° NW 23:20:20 10° NW visible
29 Mar 4.6 21:17:53 20° NE 21:17:53 20° NE 21:20:59 10° NNE visible
29 Mar 4.9 22:59:23 28° NW 22:59:23 28° NW 23:02:07 10° NNW visible
30 Mar 4.9 20:59:00 14° ENE 20:59:00 14° ENE 21:01:32 10° NNE visible
30 Mar 4.4 22:40:30 37° NNW 22:40:30 37° NNW 22:43:42 10° NNW visible
31 Mar 4.0 22:21:37 43° N 22:21:37 43° N 22:25:10 10° N visible
01 Apr 3.9 22:02:44 41° NNE 22:02:44 41° NNE 22:06:30 10° N visible
01 Apr 5.8 23:44:14 14° WNW 23:44:14 14° WNW 23:45:24 10° NW visible
02 Apr 4.1 21:43:50 33° NE 21:43:50 33° NE 21:47:41 10° N visible
02 Apr 5.3 23:25:21 20° WNW 23:25:21 20° WNW 23:27:36 10° NW visible
03 Apr 4.4 21:24:57 24° ENE 21:24:57 24° ENE 21:28:42 10° NNE visible
03 Apr 4.8 23:06:27 29° NW 23:06:27 29° NW 23:09:28 10° NNW visible
04 Apr 4.8 21:06:04 17° ENE 21:06:08 17° ENE 21:09:26 10° NNE visible
04 Apr 4.3 22:47:34 40° NW 22:47:34 40° NW 22:51:09 10° NNW visible
05 Apr 5.1 20:47:10 11° ENE 20:47:51 11° ENE 20:49:25 10° NE visible
05 Apr 3.8 22:28:41 51° NNW 22:28:41 51° NNW 22:32:39 10° NNW visible
06 Apr 3.6 22:09:48 51° NNE 22:09:48 51° NNE 22:14:02 10° N visible
06 Apr 5.8 23:51:19 13° WNW 23:51:19 13° WNW 23:52:22 10° WNW visible
